Find Think Orbital F2

NORAD ID: 62380 Int'l Des: NNA 2024-247 Owner: THINK Country: US operational
LEOCIRCULAR

現在のビュー

3D地球を読み込み中...

About Think Orbital F2

Think Orbital F2 (NORAD 62380) is a satellite launched Dec 21, 2024 by THINK of US. It operates in LEO, CIRCULAR orbit with a mass of 20.00 kg.

次回通過

Passes for default location (London). Set your location on the main map for personalized predictions.

高度履歴

Loading altitude history...

軌道要素

1 62380U 24247D 26194.24945429 .00005195 00000-0 17825-3 0 9995
2 62380 44.9947 146.4375 0002761 47.7948 312.3170 15.31339542 86998
Epoch: Jul 13, 2026 • Age: 25 hours

現在のステータス

高度 470.6 km
遠地点 / 近地点 N/A
速度 7.63 km/s
衛星直下点 0.67°N, 103.6°E
打ち上げ日 Dec 21, 2024
運用期間 1.5 years
タイプ other

技術仕様

分類 Payload
質量 20.00 kg
乾燥質量 20.00 kg
総質量 20.00 kg
長さ 0.30 m
直径 0.20 m
スパン 2.00 m
形状 Box+2 pan
製造者 THINK
バスタイプ Cubesat 12U
フェーズステータス In Orbit
所有者/国 THINK/US

Most Searched